{"data":{"norad_id":68023,"intl_designator":"2026-040J","name":"STARLINK-36871","alt_names":[],"object_type":"PAYLOAD","status":"ACTIVE","operator":null,"country":"US","launch_date":"2026-03-01","launch_site_code":"AFWTR","launch_vehicle":null,"mission":null,"orbit_class":"UNKNOWN","rcs_meters":null,"size_class":null,"mass_kg":null,"dimensions":null,"purposes":["comms"],"wikipedia_slug":null,"has_3d_model":false,"image_url":null,"decayed_at":null,"tle_current":{"epoch":"2026-05-25T02:44:56.472000Z","epoch_age_seconds":65115,"freshness":"FRESH","line1":"1 68023U 26040J   26145.11454250  .00018634  00000+0  57808-3 0  9993","line2":"2 68023  97.2861  94.1073 0001389  97.9097 262.2303 15.33445884 13175","mean_motion":15.33445884,"eccentricity":0.0001389,"inclination_deg":97.2861,"raan_deg":94.1073,"arg_perigee_deg":97.9097,"mean_anomaly_deg":262.2303,"bstar":0.00057808,"rev_number":1317,"period_min":93.90615052184,"perigee_km":464.58995750644,"apogee_km":466.49113112825,"semimajor_km":6843.6775443173,"source":"CELESTRAK","updated_at":"2026-05-25T13:38:21.805867Z"}}}